Location: Middelsbur
(53.6609°N, 7.5020°E)
Time: 13:16:04
(UTC+00:00)

Cosmos 2344 - Pass Details

Date: 06 July 2020
Orbit: 1249 x 2993 km, 63.3° (Epoch: 06 August)

Event Time Altitude Azimuth Distance (km) Brightness Sun altitude
Exits shadow 22:05:05 - 191° (SSW) 3,469 5.4 -11.3°
Reaches altitude 10° 22:05:46 10° 190° (S) 3,234 5.2 -11.4°
Maximum altitude 22:12:43 44° 120° (ESE) 1,691 3.9 -11.7°
Drops below altitude 10° 22:20:18 10° 51° (NE) 3,526 6.2 -12.1°
Sets 22:23:34 0° 46° (NE) 4,675 6.9 -12.2°
